sat.trackr.live / text

‹ back to catalog

SEDNA-1

NORAD 60580 · 2024-149DS

PAYLOAD ACTIVE UNKNOWN

§ Identity

Operator
Country
US
Launch date
2024-08-16
Launch site
AFWTR
Launch vehicle
Mass (kg)
RCS (m²)

External: N2YO · Heavens-Above · Gunter

§ Orbital elements

Epoch: 2026-05-25T03:58:05.471040Z

Period
95.57 min
Inclination
97.6635°
Eccentricity
0.0010174
Mean motion
15.06675150 rev/d
Perigee alt
539.3 km
Apogee alt
553.4 km
Semi-major
6,924.5 km
B*
4.9189e-4
RAAN
225.7441°
Arg perigee
72.6450°
Mean anomaly
287.5889°
Rev number
9,692

§ Raw data

SEDNA-11 60580U 24149DS  26145.16534110  .00007249  00000+0  49189-3 0  99932 60580  97.6635 225.7441 0010174  72.6450 287.5889 15.06675150 96928

JSON: /api/v1/satellites/60580 · /tle

For live sub-satellite position, see the globe view (requires WebGL).

§ Visibility from observer

Set your observer location to see the next 7 days of passes ≥ 10°. The values pass through the URL so the page stays shareable.

No JS? Fill the form by hand. The geolocation button needs JavaScript.

§ Radio — SatNOGS DB

ModeDescriptionDownlinkUplink
GMSK Mode U - Transmitter 2 400.625 MHz
FM Mode U - Transmitter 1 (inactive) 400.575 MHz

2 transmitters · refreshed weekly from db.satnogs.org